Regional Weather Roundup
Issued by NWS

Home | Current Version | Previous Version | Text Only | Print | Product List | Glossary Off
Versions: 1 2 3 4 5 6 7 8 9 10 11 12 13 14 15 16 17 18 19 20 21 22 23 24 25 26 27 28 29 30 31 32 33 34 35 36 37 38 39 40 41 42 43 44 45 46 47 48 49 50

000
ASUS43 KMKX 290721
RWRWI

WISCONSIN REGIONAL WEATHER ROUNDUP
NATIONAL WEATHER SERVICE MILWAUKEE/SULLIVAN WI
200 AM CDT MON MAY 29 2017

NOTE: "FAIR" INDICATES FEW OR NO CLOUDS BELOW 12,000 FEET WITH NO
SIGNIFICANT WEATHER AND/OR OBSTRUCTIONS TO VISIBILITY.

WIZ001-002-006>008-014>016-023>028-290800-
NORTHWEST WISCONSIN

CITY           SKY/WX    TMP DP  RH WIND       PRES   REMARKS
SUPERIOR ARPT  NOT AVBL
ASHLAND        CLOUDY    52  47  83 SW9       29.62S
HAYWARD        CLOUDY    51  46  83 SW5       29.66S
SIREN          CLOUDY    52  47  83 W8        29.68F
CUMBERLAND     CLOUDY    50  45  81 W8        29.69S
RICE LAKE      CLOUDY    53  47  80 W7        29.70F
CHETEK         CLOUDY    54  47  78 W6        29.69S
LADYSMITH      CLOUDY    52  50  92 W5        29.69S
EAU CLAIRE     MOCLDY    50  49  96 W5        29.69S
MENOMONIE      CLOUDY    53  49  87 W6        29.70F
NEW RICHMOND   CLOUDY    52  49  90 W6        29.70S
OSCEOLA        CLOUDY    54  54 100 W3        29.73S
$$

WIZ003>005-009-010-017-018-290800-
NORTH CENTRAL WISCONSIN

CITY           SKY/WX    TMP DP  RH WIND       PRES   REMARKS
MANITOWISH WTR CLOUDY    48  48 100 SW5       29.63S
ARBOR VITAE    CLOUDY    52  49  90 CALM      29.63F
WOODRUFF       CLOUDY    52  49  90 CALM      29.63F
RHINELANDER    PTCLDY    49  47  93 SW5       29.66F
EAGLE RIVER    PTCLDY    48  47  97 SW5       29.64S
LAND O LAKES   MOCLDY    50  49  99 SW5       29.64F
PHILLIPS       PTCLDY    49  48  97 W3        29.65F
TOMAHAWK       MOCLDY    47  45  93 CALM      29.67S
MEDFORD        CLOUDY    51  47  86 W7        29.68S
MERRILL        PTCLDY    47  47 100 SW3       29.67F
$$

WIZ029-030-035-036-043>047-290800-
CENTRAL WISCONSIN

CITY           SKY/WX    TMP DP  RH WIND       PRES   REMARKS
WAUSAU         CLOUDY    52  49  89 SW5       29.66F
MOSINEE        LGT RAIN  50  50 100 S5        29.69F
MARSHFIELD     CLOUDY    50  47  89 SW6       29.68F
STEVENS POINT  MOCLDY    52  47  83 CALM      29.69F
WAUPACA        PTCLDY    55  47  74 CALM      29.69F
WAUTOMA        CLOUDY    53  49  86 CALM      29.71F
WISC RAPIDS    MOCLDY    53  50  89 SW7       29.71S
CAMP DOUGLAS   PTCLDY    46  45  93 NW3       29.71S
$$

WIZ011>013-019>022-031-037>040-048>050-290800-
NORTHEAST WISCONSIN

CITY           SKY/WX    TMP DP  RH WIND       PRES   REMARKS
ANTIGO         CLEAR     46  46  98 SW6       29.68S
SHAWANO        PTCLDY    56  48  73 W5        29.68S
OCONTO         CLEAR     53  47  81 W6        29.66R
STURGEON BAY   CLEAR     56  49  77 SW6       29.67R
GREEN BAY      CLEAR     56  50  80 W9        29.68S
MANITOWOC      CLEAR     57  48  72 SW5       29.70R
APPLETON       CLEAR     54  43  66 W6        29.68S
CLINTONVILLE   PTCLDY    54  45  71 W5        29.68S
OSHKOSH        CLEAR     56  47  71 SW5       29.69F
$$

WIZ032>034-041-042-053>061-290800-
SOUTHWEST WISCONSIN

CITY           SKY/WX    TMP DP  RH WIND       PRES   REMARKS
LA CROSSE      CLEAR     58  50  75 CALM      29.73R
SPARTA         CLEAR     45  45  99 CALM      29.73S
VIROQUA        CLEAR     55  44  66 CALM      29.74S
BOSCOBEL       CLEAR     53  49  86 SW6       29.75S
PRAIRIE DU CHI PTCLDY    56  44  64 CALM      29.75F
PLATTEVILLE    CLEAR     57  48  72 W10       29.77S
$$

WIZ056-057-062-063-064-067-068-290800-
SOUTH CENTRAL WISCONSIN

CITY           SKY/WX    TMP DP  RH WIND       PRES   REMARKS
REEDSBURG      CLEAR     51  49  94 CALM      29.72S
BARABOO/DELLS  CLEAR     51  45  81 CALM      29.72S
LONE ROCK      CLEAR     51  48  89 CALM      29.73S
MINERAL POINT  CLEAR     57  45  62 W8        29.76R
MADISON        CLEAR     60  47  61 CALM      29.73R
MIDDLETON      CLEAR     54  47  76 CALM      29.74S
WATERTOWN      CLEAR     52  49  90 CALM      29.72S
MONROE         CLEAR     57  46  67 SW9       29.76S
JANESVILLE     CLEAR     57  50  77 CALM      29.75R
$$

WIZ051-052-058>065-066-070>072-290800-
SOUTHEAST WISCONSIN

CITY           SKY/WX    TMP DP  RH WIND       PRES   REMARKS
MILWAUKEE      CLEAR     62  48  60 SW8       29.73S
WAUKESHA       CLEAR     54  45  71 SW7       29.75R
MILWAUKEE/TIMM   N/A     54  45  71 SW5       29.74R
RACINE         CLEAR     57  47  69 SW7       29.76R
KENOSHA        CLEAR     55  48  77 SW5       29.75R
FOND DU LAC    CLEAR     54  46  74 SW6       29.71S
SHEBOYGAN      CLEAR     54  50  86 W6        29.71R
WEST BEND      CLEAR     57  45  62 W3        29.72R
JUNEAU         PTCLDY    55  47  77 CALM      29.74R
$$

LSZ147-162-290800-
LAKE SUPERIOR

STATION/POSITION TIME  TEMP    WIND        PRES    WAVE
                       AIR SEA DIR/SP/G            HT/PER
                 (UTC) (F)     (DEG/KT/KT) (MB)    (FT/S)
W MID LAKE BUOY  0650   42 37  160/  2/  2 1001.9F   0
DEVILS ISLAND    0700   48     240/ 16/ 18 1002.3F
PORT WING        0640   55     230/  4/ 10 1003.0F
SAXON HARBOR     0630   54     210/  6/ 10 1002.7S
$$

LMZ867-665-643>646-290800-
LAKE MICHIGAN

STATION/POSITION TIME  TEMP    WIND        PRES    WAVE
                       AIR SEA DIR/SP/G            HT/PER
                 (UTC) (F)     (DEG/KT/KT) (MB)    (FT/S)
CHAMBERS ISLAND  0640   54     200/  4/ 10 1003.7R
N MID LAKE BUOY  0650   41 41  210/  4/  6 1004.7R   1/ 3
NORTHPORT PIER   0640   47     320/  4/  5 1003.7S
SISTER BAY       0606   50        CALM       N/A
ALGOMA LAKESHORE 0446             CALM       N/A
KEWAUNEE LAKESHO 0654   56     260/  3/  5 1004.5S
SHEBOYGAN LAKESH 0700   59     260/  9/ 10 1005.6R
PORT WASHINGTON  0640   60     260/  4/  7 1007.1S
ATWATER BUOY     0609   58     230/  8/  8 1006.7S
MILWAUKEE LAKESH 0700   62     240/  9/  9   N/A
S MID LAKE BUOY  0650   53 47  260/ 10/ 10 1007.2R   1
KENOSHA   LAKESH 0700   62     240/  5/  9 1007.5
$$

TC  - TEMPERATURE IN CELSIUS
VSB - VISIBILITY IN STATUTE MILES
WCI - WIND CHILL INDEX
HX  - HEAT INDEX




USA.gov is the U.S. government's official web portal to all federal, state and local government web resources and services.